STARLINK-32844, 62820

Orbit data source: Space-Track

STARLINK-32844, 62820 is a payload satellite owned by SpaceX/Seattle (US) in LEO that was launched on Fri, 24 Jan 2025 UTC via an FALCON 9 launch vehicle from the Air Force Western Test Range (AFWTR). Payload-class satellites include a variety of spacecraft equipped with specific instruments for various scientific and technological missions. These include communications satellites like Starlink; space stations such as the ISS; scientific satellites like the Hubble; Earth observation satellites from companies like Planet Labs, Umbra, and HawkEye 360; GPS; miniature CubeSats for education and research; and military/defense satellites.

Loading next visibility...
Identifier
62820, 2025-018Q
Orbit
LEO
Last TLE update
9 hours ago
Origin
Manufacturer
SpaceX/Seattle
Mission
Operational Commercial Communications
Bus & Motor
STARLINK V2M, Unknown motor
Mass
730 kg wet, ~700 kg dry
Launch date (UTC)
2025-01-24 (5 months ago)
Launch vehicle
FALCON 9
Launch site
Air Force Western Test Range (AFWTR)
Object type
Payload
Rocket body
Debris
Shape & HBR
Box + 2 Pan, 29 m
Radar Cross Section
33.884 m², Large (>1 m²)

Expand to show TLE details & history

TLE from 9 hours ago
0 STARLINK-32844
1 62820U 25018Q   25182.00255440  .00024846  00000-0  84830-3 0  9992
2 62820  53.1603  38.6831 0001217  83.3247 276.7893 15.30195729 25578
Epoch: 2025-07-01T00:03Z
TLE epoch observation values (Epoch: 2025-07-01T00:03:40.7Z)
Latitude
0.00006°
Longitude
118.4593°
Altitude
476.029 km
Speed
7.629 km/s
True Right ascension
02h 34m 43s
True Declination
0° 00' 00"
Sunlit
Object was in daylight at epoch
Visualization orbit readout
Latitude
-25.76397°
Longitude
-42.16234°
Altitude
483.236 km
Speed
7.623 km/s
Apparent Right ascension
12h 48m 20s
Apparent Declination
-47° 55' 09"
Sunlit
Object is in full shadow
Visualization observer readout
Local Sidereal Time
20:27:38
Azimuth
237.419° WSW
Elevation
-43.794°
Doppler factor
1
Orbital elements
Apogee altitude
476.318 km
Perigee altitude
474.65 km
Semi-major axis
6,853.621 km
Eccentricity
0.00012
Inclination
53.1603°
RAAN
38.6831°
Arg. of periapsis
83.3247°
True anomaly
Unknown
Mean anomaly
276.7893°
Eccentric anomaly
Unknown
Mean motion
3.82528 °/min
Orbital period
94.11 mins
BSTAR
0.0008483
Loading maneuver chart data...
Loading SW <> Apogee altitude chart data...
Loading historical data...
Loading historical data...
Loading historical data...
Loading historical data...
Loading historical data...
Loading historical data...
Loading historical data...

STARLINK-32844 Visibility forecast

Observer location: undefined°, undefined°

Span
Click to sort rows by Start time (UTC) header in descending order
Start Az.
Max El. time (UTC)
Max El. Az.
Max El.
End time (UTC)
End Az.
5 mins2025-07-01 17:30:27.531Z244.447° WSW2025-07-01 17:32:27.531Z291.584° WNW41.041°2025-07-01 17:35:27.531Z41.918° NE
4 mins2025-07-01 22:27:27.531Z342.927° N2025-07-01 22:29:27.531Z21.638° NNE18.691°2025-07-01 22:31:27.531Z61.899° ENE
5 mins2025-07-02 00:05:27.531Z305.599° NW2025-07-02 00:07:27.531Z277.456° WNW42.923°2025-07-02 00:10:27.531Z137.213° SSE
|